| time (UTC) | temp F | wind direction | speed MPH | gust MPH | rain 1hr in | rain 24hr in | rain mn in | humidity % | barometer mb |
| 20260507184558 | 63 | 342 | 3.0 | 8.0 | 0.01 | 0.81 | 0.81 | 93 | 1007.2 |
| 20260507183012 | 66 | 1 | 5.0 | 13.0 | 0.01 | 0.81 | 0.81 | 90 | 1006.8 |
| 20260507181540 | 72 | 240 | 1.0 | 5.0 | 0.00 | 0.80 | 0.81 | 93 | 1006.5 |
| 20260507180100 | 70 | 275 | 2.0 | 5.0 | 0.00 | 0.80 | 0.80 | 94 | 1006.9 |
| 20260507174526 | 70 | 264 | 2.0 | 7.0 | 0.00 | 0.80 | 0.80 | 92 | 1006.6 |
| 20260507173046 | 71 | 289 | 2.0 | 6.0 | 0.00 | 0.80 | 0.80 | 94 | 1006.4 |
| 20260507171502 | 69 | 212 | 2.0 | 6.0 | 0.00 | 0.80 | 0.80 | 95 | 1006.6 |
| 20260507170026 | 69 | 196 | 0.0 | 6.0 | 0.00 | 0.80 | 0.80 | 95 | 1007.3 |
| 20260507164547 | 69 | 236 | 1.0 | 4.0 | 0.00 | 0.80 | 0.80 | 95 | 1008.0 |
| 20260507163008 | 69 | 295 | 2.0 | 5.0 | 0.01 | 0.80 | 0.80 | 95 | 1008.2 |
| 20260507161540 | 69 | 224 | 2.0 | 6.0 | 0.05 | 0.80 | 0.80 | 95 | 1008.3 |
| 20260507160027 | 68 | 229 | 1.0 | 6.0 | 0.08 | 0.80 | 0.80 | 94 | 1008.1 |
| 20260507154532 | 68 | 207 | 1.0 | 6.0 | 0.14 | 0.80 | 0.80 | 95 | 1008.0 |
| 20260507153103 | 67 | 266 | 2.0 | 5.0 | 0.17 | 0.79 | 0.79 | 96 | 1008.1 |
| 20260507151512 | 67 | 257 | 3.0 | 9.0 | 0.16 | 0.75 | 0.75 | 96 | 1008.4 |
| 20260507150048 | 67 | 204 | 2.0 | 9.0 | 0.16 | 0.72 | 0.72 | 96 | 1008.6 |
| 20260507144509 | 68 | 236 | 1.0 | 10.0 | 0.13 | 0.65 | 0.66 | 96 | 1008.8 |
| 20260507143034 | 68 | 215 | 3.0 | 10.0 | 0.09 | 0.61 | 0.62 | 96 | 1008.8 |
| 20260507141555 | 68 | 271 | 2.0 | 8.0 | 0.07 | 0.59 | 0.59 | 96 | 1008.8 |
| 20260507141512 | 68 | 326 | 2.0 | 8.0 | 0.07 | 0.59 | 0.59 | 96 | 1008.9 |
| 20260507140021 | 68 | 295 | 1.0 | 6.0 | 0.04 | 0.56 | 0.56 | 96 | 1008.9 |
| 20260507134548 | 68 | 213 | 1.0 | 6.0 | 0.00 | 0.52 | 0.52 | 96 | 1009.0 |
| 20260507133113 | 68 | 291 | 1.0 | 6.0 | 0.00 | 0.52 | 0.52 | 96 | 1008.7 |
| 20260507133002 | 68 | 268 | 2.0 | 6.0 | 0.00 | 0.52 | 0.52 | 96 | 1008.7 |
| 20260507131519 | 68 | 271 | 1.0 | 7.0 | 0.00 | 0.52 | 0.52 | 96 | 1008.7 |
| 20260507130049 | 68 | 199 | 1.0 | 8.0 | 0.00 | 0.52 | 0.52 | 96 | 1008.4 |
| 20260507124635 | 67 | 250 | 4.0 | 7.0 | 0.00 | 0.52 | 0.52 | 97 | 1008.7 |
| 20260507123018 | 67 | 212 | 1.0 | 8.0 | 0.00 | 0.52 | 0.52 | 97 | 1009.1 |
| 20260507121541 | 67 | 210 | 1.0 | 6.0 | 0.00 | 0.52 | 0.52 | 97 | 1009.3 |
| 20260507120059 | 67 | 214 | 1.0 | 4.0 | 0.00 | 0.52 | 0.52 | 97 | 1009.3 |
| 20260507114529 | 66 | 224 | 0.0 | 5.0 | 0.02 | 0.52 | 0.52 | 97 | 1009.7 |
| 20260507113047 | 66 | 246 | 0.0 | 3.0 | 0.03 | 0.52 | 0.52 | 97 | 1009.7 |
| 20260507111515 | 66 | 255 | 2.0 | 4.0 | 0.03 | 0.52 | 0.52 | 97 | 1009.8 |
| 20260507110037 | 66 | 186 | 1.0 | 5.0 | 0.04 | 0.52 | 0.52 | 97 | 1009.5 |
| 20260507104558 | 66 | 214 | 2.0 | 4.0 | 0.03 | 0.50 | 0.50 | 97 | 1009.3 |
| 20260507103023 | 66 | 224 | 2.0 | 5.0 | 0.02 | 0.49 | 0.49 | 97 | 1009.3 |
| 20260507101541 | 66 | 212 | 1.0 | 3.0 | 0.03 | 0.49 | 0.49 | 97 | 1009.6 |
| 20260507100009 | 66 | 212 | 0.0 | 4.0 | 0.02 | 0.48 | 0.48 | 97 | 1009.2 |
| 20260507094523 | 66 | 230 | 3.0 | 8.0 | 0.07 | 0.47 | 0.47 | 97 | 1009.1 |
| 20260507093057 | 66 | 214 | 3.0 | 6.0 | 0.12 | 0.47 | 0.47 | 97 | 1008.9 |
| 20260507091518 | 66 | 214 | 3.0 | 8.0 | 0.13 | 0.46 | 0.46 | 97 | 1009.0 |
| 20260507090044 | 66 | 167 | 4.0 | 14.0 | 0.14 | 0.46 | 0.46 | 98 | 1009.2 |
| 20260507084559 | 66 | 205 | 3.0 | 9.0 | 0.10 | 0.40 | 0.41 | 98 | 1009.8 |
| 20260507083027 | 65 | 207 | 1.0 | 5.0 | 0.06 | 0.35 | 0.35 | 98 | 1010.1 |
| 20260507081553 | 65 | 247 | 2.0 | 7.0 | 0.04 | 0.33 | 0.33 | 98 | 1009.8 |
| 20260507080027 | 65 | 223 | 0.0 | 0.0 | 0.03 | 0.32 | 0.32 | 98 | 1010.1 |
| 20260507074601 | 65 | 241 | 0.0 | 0.0 | 0.01 | 0.30 | 0.30 | 98 | 1010.1 |
| 20260507073021 | 65 | 151 | 0.0 | 3.0 | 0.00 | 0.28 | 0.28 | 97 | 1010.0 |
| 20260507071553 | 65 | 206 | 0.0 | 0.0 | 0.00 | 0.28 | 0.28 | 97 | 1010.3 |
| 20260507070015 | 65 | 167 | 0.0 | 0.0 | 0.00 | 0.28 | 0.28 | 97 | 1010.4 |
| 20260507064547 | 66 | 124 | 0.0 | 0.0 | 0.00 | 0.28 | 0.28 | 97 | 1010.4 |
| 20260507063011 | 66 | 139 | 0.0 | 1.0 | 0.01 | 0.28 | 0.28 | 97 | 1010.9 |
| 20260507061534 | 66 | 287 | 0.0 | 3.0 | 0.11 | 0.28 | 0.28 | 97 | 1011.4 |
| 20260507060048 | 66 | 158 | 0.0 | 0.0 | 0.21 | 0.28 | 0.28 | 96 | 1010.7 |
| 20260507054514 | 66 | 197 | 0.0 | 3.0 | 0.28 | 0.28 | 0.28 | 96 | 1010.9 |
| 20260507053025 | 66 | 191 | 0.0 | 3.0 | 0.28 | 0.28 | 0.28 | 95 | 1010.3 |
| 20260507051547 | 67 | 297 | 0.0 | 3.0 | 0.18 | 0.18 | 0.19 | 94 | 1012.4 |
| 20260507050007 | 68 | 315 | 3.0 | 7.0 | 0.07 | 0.07 | 0.08 | 91 | 1012.5 |
| 20260507044522 | 70 | 255 | 2.0 | 6.0 | 0.00 | 0.00 | 0.00 | 83 | 1012.3 |
| 20260507043039 | 71 | 224 | 1.0 | 6.0 | 0.00 | 0.00 | 0.00 | 81 | 1011.8 |
| 20260507041559 | 71 | 282 | 0.0 | 4.0 | 0.00 | 0.00 | 0.00 | 80 | 1011.7 |
| 20260507040019 | 72 | 214 | 1.0 | 5.0 | 0.00 | 0.00 | 0.00 | 77 | 1011.7 |
| 20260507034536 | 73 | 222 | 2.0 | 5.0 | 0.00 | 0.00 | 0.00 | 73 | 1010.9 |
| 20260507033046 | 74 | 193 | 2.0 | 6.0 | 0.00 | 0.00 | 0.00 | 72 | 1011.2 |
| 20260507031509 | 74 | 214 | 2.0 | 4.0 | 0.00 | 0.00 | 0.00 | 72 | 1011.3 |
| 20260507030027 | 74 | 205 | 1.0 | 4.0 | 0.00 | 0.00 | 0.00 | 72 | 1011.2 |
| 20260507024547 | 74 | 223 | 0.0 | 6.0 | 0.00 | 0.00 | 0.00 | 72 | 1011.0 |
| 20260507023003 | 74 | 200 | 2.0 | 6.0 | 0.00 | 0.00 | 0.00 | 72 | 1011.0 |
| 20260507021530 | 74 | 212 | 2.0 | 6.0 | 0.00 | 0.00 | 0.00 | 72 | 1011.1 |
| 20260507020047 | 74 | 221 | 1.0 | 4.0 | 0.00 | 0.00 | 0.00 | 72 | 1011.0 |
| 20260507014603 | 74 | 224 | 1.0 | 7.0 | 0.00 | 0.00 | 0.00 | 71 | 1011.1 |
| 20260507013038 | 74 | 186 | 2.0 | 9.0 | 0.00 | 0.00 | 0.00 | 70 | 1011.0 |
| 20260507011544 | 74 | 195 | 5.0 | 10.0 | 0.00 | 0.00 | 0.00 | 71 | 1011.0 |
| 20260507010009 | 74 | 197 | 2.0 | 5.0 | 0.00 | 0.00 | 0.00 | 71 | 1010.9 |
| 20260507004524 | 74 | 206 | 0.0 | 1.0 | 0.00 | 0.00 | 0.00 | 69 | 1011.2 |
| 20260507003050 | 74 | 153 | 1.0 | 4.0 | 0.00 | 0.00 | 0.00 | 69 | 1010.9 |
| 20260507001509 | 75 | 209 | 1.0 | 6.0 | 0.00 | 0.00 | 0.00 | 67 | 1011.0 |
| 20260507000033 | 76 | 232 | 2.0 | 7.0 | 0.00 | 0.00 | 0.00 | 66 | 1010.8 |
| 20260506234549 | 77 | 207 | 2.0 | 9.0 | 0.00 | 0.00 | 0.00 | 65 | 1010.6 |
| 20260506233013 | 77 | 218 | 4.0 | 9.0 | 0.00 | 0.00 | 0.00 | 64 | 1010.6 |
| 20260506231531 | 78 | 201 | 3.0 | 12.0 | 0.00 | 0.00 | 0.00 | 64 | 1010.5 |
| 20260506230050 | 80 | 205 | 4.0 | 10.0 | 0.00 | 0.00 | 0.00 | 62 | 1010.7 |
| 20260506224511 | 79 | 254 | 5.0 | 11.0 | 0.00 | 0.00 | 0.00 | 62 | 1010.5 |
| 20260506223032 | 81 | 282 | 5.0 | 9.0 | 0.00 | 0.00 | 0.00 | 61 | 1010.3 |
| 20260506221559 | 80 | 184 | 6.0 | 13.0 | 0.00 | 0.00 | 0.00 | 61 | 1010.2 |
| 20260506220023 | 81 | 203 | 5.0 | 8.0 | 0.00 | 0.00 | 0.00 | 62 | 1010.2 |
| 20260506214540 | 80 | 225 | 5.0 | 12.0 | 0.00 | 0.00 | 0.00 | 62 | 1010.5 |
| 20260506213058 | 79 | 239 | 6.0 | 13.0 | 0.00 | 0.00 | 0.00 | 64 | 1010.5 |
| 20260506211529 | 79 | 227 | 5.0 | 13.0 | 0.00 | 0.00 | 0.00 | 65 | 1010.6 |
| 20260506210045 | 78 | 232 | 3.0 | 11.0 | 0.00 | 0.00 | 0.00 | 67 | 1010.6 |
| 20260506204510 | 77 | 263 | 3.0 | 8.0 | 0.00 | 0.00 | 0.00 | 69 | 1010.7 |
| 20260506203026 | 76 | 238 | 1.0 | 3.0 | 0.00 | 0.00 | 0.00 | 74 | 1010.6 |
| 20260506201548 | 74 | 236 | 1.0 | 9.0 | 0.00 | 0.00 | 0.00 | 77 | 1010.5 |
| 20260506200009 | 73 | 214 | 2.0 | 8.0 | 0.00 | 0.00 | 0.00 | 76 | 1011.1 |
| 20260506194526 | 76 | 292 | 2.0 | 12.0 | 0.00 | 0.00 | 0.00 | 69 | 1012.0 |
| 20260506193044 | 78 | 288 | 5.0 | 11.0 | 0.00 | 0.00 | 0.00 | 63 | 1012.2 |
| 20260506191508 | 79 | 273 | 4.0 | 14.0 | 0.00 | 0.00 | 0.00 | 61 | 1012.8 |
| 20260506190022 | 79 | 164 | 6.0 | 16.0 | 0.00 | 0.00 | 0.00 | 60 | 1012.7 |